Regional Weather Roundup
Issued by NWS Wakefield, VA

Home | Current Version | Previous Version | Text Only | Print | Product List | Glossary Off
Versions: 1 2 3 4 5 6 7 8 9 10 11 12 13 14 15 16 17 18 19 20 21 22 23 24 25 26 27 28 29 30 31 32 33 34 35 36 37 38 39 40 41 42 43 44 45 46 47 48 49 50

000
ASUS41 KAKQ 270810
RWRAKQ

REGIONAL WEATHER ROUNDUP
NATIONAL WEATHER SERVICE WAKEFIELD VA
400 AM EDT WED AUG 27 2014

Note: "fair" indicates few or no clouds below 12,000 feet with no
significant weather and/or obstructions to visibility. * = Denotes
station may not report precipitation (e.g., rain,snow,etc.),
thunder or fog.

VAZ042-051-052>054-056-270900-
NORTHERN VIRGINIA

CITY           SKY/WX    TMP DP  RH WIND       PRES   REMARKS
WASH NATIONAL  PTCLDY    72  65  78 CALM      30.05F
DULLES         CLEAR     61  60  97 NW3       30.06F
FORT BELVOIR   CLEAR     61  60  97 CALM      30.06S
QUANTICO       CLEAR     65  63  93 NW5       30.05F
FREDERICKSBRG* CLEAR     63  63 100 CALM      30.04F
STAFFORD*        N/A     59  59 100 CALM      30.09F FOG
WARRENTON      FOG       57  57 100 CALM      30.05S VSB 1/2
CULPEPER*        N/A    N/A N/A N/A CALM      30.07S FOG
MANASSAS*        N/A     61  61 100 CALM      30.06S VSB 3/4
LEESBURG*      CLEAR     63  63 100 CALM      30.07S
WINCHESTER     CLEAR     63  59  88 CALM      30.08S
$$

VAZ048-049-060>072-079>083-270900-
CENTRAL AND SOUTH CENTRAL VIRGINIA...AND NORTH CENTRAL NORTH CAROLINA

CITY           SKY/WX    TMP DP  RH WIND       PRES   REMARKS
RICHMOND       CLEAR     63  59  87 CALM      30.06S
CHESTERFIELD*  SUNNY    N/A N/A N/A CALM      30.07S
HANOVER        CLEAR     59  58  96 CALM      30.07S FOG
TAPPAHANNOCK*  CLEAR     57  55  91 CALM      30.07R
CHARLOTTSVILLE CLEAR     59  58  96 W5        30.07F
ORANGE*          N/A     59  57  94 CALM      30.08S FOG
LOUISA*        FOG       57  57 100 CALM      30.05F VSB 1/4
FARMVILLE*     FOG       57  55  94 CALM      30.05S VSB 3/4
SOUTH HILL*    CLEAR     61  61 100 CALM      30.12S
ROANOKE RAPIDS FOG       55  55 100 N3        30.04F VSB 1/2
RALEIGH        PTCLDY    62  59  90 CALM      30.06F
$$

VAZ088>098-270900-
SOUTHEAST VIRGINIA

CITY           SKY/WX    TMP DP  RH WIND       PRES   REMARKS
NORFOLK        PTCLDY    72  68  87 NE9       30.02F
VIRGINIA BEACH PTCLDY    72  69  90 NE7       30.01F
NORFOLK NAVAL  PTCLDY    74  68  81 NE10      30.04F
WEST POINT*    CLEAR     61  58  92 CALM      30.07S
NEWPORT NEWS   CLEAR     63  60  90 CALM      30.04F
LANGLEY AFB    PTCLDY    67  67 100 VRB6      30.03F
FORT EUSTIS    CLEAR     64 N/A N/A CALM      30.02F
WILLIAMSBURG*  PTCLDY    64  63  94 CALM      30.05F
FRANKLIN*      CLOUDY    59  59 100 CALM      30.04F VSB<1/4
WAKEFIELD      FOG       57  55  93 CALM      30.05F VSB 1/4
$$

VAZ020-022-025-037-045-270900-
WESTERN AND SOUTHWEST VIRGINIA

CITY           SKY/WX    TMP DP  RH WIND       PRES   REMARKS
STAUNTON*      PTCLDY    53  51  93 CALM      30.13S
HOT SPRINGS VA CLEAR     57  56  97 NW9       30.23S
LYNCHBURG      CLEAR     57  57 100 CALM      30.10S
DANVILLE       CLEAR     60  57  89 CALM      30.08S
MARTINSVILLE   CLEAR     54  54 100 CALM      30.11F
ROANOKE        CLEAR     60  58  92 NE5       30.12F
BLACKSBURG     FOG       54  54 100 CALM      30.17F VSB<1/4
DUBLIN*        CLEAR     55  55 100 CALM      30.16F
MARION*        FOG      N/A N/A N/A CALM      30.20S VSB 3/4
HILLSVILLE*    PTCLDY    53  53  99 CALM      30.17F
RICHLANDS*     SUNNY     64  56  75 SE3       30.17S
WISE*          CLEAR     61  54  77 CALM      30.18S
ABINGDON*      CLEAR     60  56  85 E5        30.15S
$$

MDZ021>025-VAZ099-100-270900-
SOUTHERN MARYLAND AND THE DELMARVA PENINSULA

CITY           SKY/WX    TMP DP  RH WIND       PRES   REMARKS
PATUXENT RIVER CLEAR     60  59  96 CALM      30.05R
BAY BRIDGE APT   N/A     66  64  94 CALM      30.05F
LEONARDTOWN    CLEAR     59  55  88 CALM      30.07R
DOVER          CLEAR     62  62 100 CALM      30.03F
GEORGETOWN     FOG       58  57  97 S6        30.06S VSB 1/2
EASTON         CLEAR     62  62 100 CALM      30.09S
CAMBRIDGE      CLEAR     59  55  88 CALM      30.05R
SALISBURY      FOG       60  57  89 CALM      30.06S VSB 1/2
OCEAN CITY     CLOUDY    59  58  96 CALM      30.05F FOG
WALLOPS ISLAND CLEAR     64  62  93 CALM      30.05S
ACCOMACK*      NOT AVBL
$$

NCZ012>017-030>032-270900-
EASTERN NORTH CAROLINA

CITY           SKY/WX    TMP DP  RH WIND       PRES   REMARKS
ELIZABETH CITY FOG       69  68  96 N5        30.01S VSB 1
AHOSKIE*       MOCLDY    60  58  96 CALM      30.04S
EDENTON*       FOG       66  65  97 N6        30.01F VSB 1/4
CURRITUCK*     CLEAR     73  69  88 N5        30.01F
KILL DEVIL HLS PTCLDY    74  71  89 NE6       29.97F
MANTEO         CLEAR     73  71  91 N12       29.98F
CAPE HATTERAS  PTCLDY    74  73  97 NE12G21   29.95F
GOLDSBORO      CLEAR     64  63  98 NW2       30.01S
WASHINGTON     PTCLDY    64  64  97 N3        30.01S
GREENVILLE     PTCLDY    63  63 100 CALM      30.04S
NEW BERN       CLOUDY    70  67  90 N6        29.99F
WILMINGTON     CLEAR     68  65  90 N8        29.97F
$$

VAZ048-270900-
ELSEWHERE

CITY           SKY/WX    TMP DP  RH WIND       PRES   REMARKS
HARRISBURG PA  PTCLDY    66  62  87 CALM      30.05S
BALTIMORE      CLEAR     65  62  90 CALM      30.04F
ANNAPOLIS      CLEAR     68  64  87 CALM      30.05S
ANDREWS AFB    NOT AVBL
WILMINGTON DE  CLEAR     65  63  93 CALM      30.06S
PHILADELPHIA   CLEAR     70  61  73 SW5       30.05F
WILDWOOD NJ*   CLEAR     59  55  88 CALM      30.06S
ATLANTIC CITY  CLEAR     62  60  93 NW3       30.05S
HENDERSON NC   CLEAR     61  59  96 CALM      30.07S FOG
GREENSBORO     CLEAR     63  60  90 CALM      30.08S
ROCKY MOUNT    CLEAR     59  57  93 CALM      30.04F
FAYETTEVILLE   CLEAR     65  62  90 N6        30.03F
CHARLOTTE      CLEAR     61  58  90 NW5       30.08F
$$

VAZ100-270900-
MARINE

STATION/POSITION TIME  TEMP    WIND        PRES    WAVE   SWELL
                       AIR SEA DIR/SP/G            HT/PER HT/PER
                 (UTC) (F)     (DEG/KT/KT) (MB)    (FT/S) (FT/S)
44066 TX TWR #4  0800   71 73  120/  2/  2 1017.3F   4/ 8   3/ 8
CAPE MAY NJ      0800   66 80   90/  1/  2 1017.0R
LEWES DE         0800   64 76  210/  4/  5 1017.4R
15NM E FENWICK I 0800   72 73              1017.7R   4/ 9
OCEAN-CITY-INLET 0800   68 75     CALM     1017.1F
WACHAPREAGUE VA  0800   67 76  360/  2/  4 1017.3F
THOMAS POINT MD  0800   71 78  260/  6/  6 1018.5F
GOOSES REEF MD   0800   73     280/  4/  6 1018.1R
COVE POINT MD    0800   71     280/  2/  4 1017.4F
SOLOMONS ISLAND  0800      79                N/A
BISHOPS HEAD MD  0800   71 76  120/  4/  6 1017.2R
PINEY POINT MD   0800          270/  3/  4   N/A
POTOMAC MD       0800   74     150/  6/  6 1016.8S
CAMBRIDGE MD     0800   65 78  150/  1/  2 1017.4R
LEWISETTA VA     0800   67 77  270/  3/  3 1017.4R
RAPPAHANNOCK LGT 0800           50/  7/  7 1017.7F
STINGRAY PT      0800   73      90/  6/  8   N/A
YORK RVR RNG VA  0800   73      60/  7/  8 1016.7F
YORKTOWN VA      0800   71 79   20/  6/  6 1016.9F
JAMESTOWN VA     0800   68      60/  4/  4   N/A
DOMINION TERM VA 0800   71      20/  5/  6 1016.9F
KIPTOPEKE VA     0800      80   20/  5/  7   N/A
CHES BAY BRIDGE  0800   74 77   20/  8/ 11 1016.1F
CAPE HENRY VA    0800   73      30/ 10/ 11 1015.6R
CHESAPEAKE LGHT  0700   73      40/ 12/ 14 1017.2F
WILLOUBY STN VA  0800   74      40/  8/  8 1015.6S
S CRANEY ISL VA  0800          350/  8/  9 1016.3F
CAPE HENRY BUOY  0800      76                N/A     4/12   2/12
1ST LANDING BUOY 0800   74      30/ 10/ 12 1016.4S
CAPE CHARLES BUO 0800      76                N/A     4/12   5/12
OFFSHORE WE BUOY 0800      75                N/A     6/13   5/13
64NM E OF VA BCH 0800   76 78   50/ 16/ 16 1014.9F   6/12   5/12
DUCK PIER NC     0800   74 76   30/ 12/ 13 1014.8F
44056 DUCK FRF   0800                        N/A     5/10   2/12
OREGON INLET NC  0800   75 78   20/ 14/ 19 1014.4F
HATTERAS NC      0800   76 78   30/ 11/ 19 1014.6F
DIAMOND SHLS NC  0800   77      10/ 19/ 23 1013.1F   8/11   5/11
CAPE LOOKOUT NC  0700   74      10/ 17/ 20 1014.3F
$$


USA.gov is the U.S. government's official web portal to all federal, state and local government web resources and services.